Location: Newark
(48.1500°N, 2.9667°W)
Time: 17:34:01
(UTC+00:00)

Altair - Pass Details

Date: 28 January 2020
Orbit: 1502 x 1682 km, 47.2° (Epoch: 22 February)

Event Time Altitude Azimuth Distance (km) Brightness Sun altitude
Rises 14:46:58 0° 291° (WNW) 4,940 10.3 16.4°
Reaches altitude 10° 14:50:33 10° 283° (WNW) 3,944 10.0 16.1°
Maximum altitude 14:59:07 33° 224° (SW) 2,536 10.4 15.2°
Drops below altitude 10° 15:07:29 10° 166° (SSE) 3,849 10.2 14.3°
Sets 15:10:58 0° 157° (SSE) 4,806 10.5 14.0°
